This demonstration page uses our WeatherBlox Daily Observations layout. Learn more.

Left ArrowRight Arrow

53.62937, 11.41316

Hourly Observations for November 29, 2019

Temp ( °F °C ) Dew Point ( °F °C ) Humidity (%) Winds ( mph kmh ) Pressure ( in mb ) Visibility ( mi km ) Precip ( " mm )
6:50 am 06:50 Mostly Cloudy 41 5 36 2 81 81 WNW 9 15 29.38 995 30 48 N/A
7:20 am 07:20 Mostly Clear 41 5 34 1 76 76 WNW 9 15 29.41 996 30 48 N/A
7:50 am 07:50 Mostly Clear 39 4 34 1 81 81 WNW 9 15 29.44 997 30 48 N/A
8:20 am 08:20 Mostly Sunny 39 4 34 1 81 81 W 8 13 29.44 997 30 48 N/A
8:50 am 08:50 Mostly Sunny 39 4 34 1 81 81 W 10 17 29.47 998 30 48 N/A
9:20 am 09:20 Mostly Sunny 41 5 34 1 76 76 W 9 15 29.47 998 30 48 N/A
9:50 am 09:50 Mostly Sunny 41 5 32 0 70 70 W 10 17 29.50 999 30 48 N/A
10:20 am 10:20 Mostly Sunny 41 5 32 0 70 70 WNW 8 13 29.53 1000 30 48 N/A
10:50 am 10:50 Partly Cloudy 41 5 32 0 70 70 WNW 9 15 29.53 1000 30 48 N/A
11:20 am 11:20 Mostly Cloudy 39 4 32 0 75 75 WNW 12 19 29.56 1001 30 48 N/A
11:50 am 11:50 Mostly Cloudy 39 4 32 0 75 75 WNW 8 13 29.59 1002 30 48 N/A
12:20 pm 12:20 Mostly Cloudy 39 4 30 -1 70 70 WNW 12 19 29.59 1002 30 48 N/A
12:50 pm 12:50 Mostly Cloudy 39 4 30 -1 70 70 WNW 10 17 29.62 1003 30 48 N/A
1:20 pm 13:20 Mostly Cloudy 39 4 28 -2 65 65 WNW 8 13 29.65 1004 30 48 N/A
1:50 pm 13:50 Partly Cloudy 41 5 28 -2 61 61 NW 14 22 29.68 1005 30 48 N/A
2:20 pm 14:20 Partly Cloudy 41 5 28 -2 61 61 WNW 14 22 29.68 1005 30 48 N/A
2:50 pm 14:50 Partly Cloudy 41 5 28 -2 61 61 NW 13 20 29.71 1006 30 48 N/A
3:20 pm 15:20 Mostly Sunny 39 4 28 -2 65 65 WNW 10 17 29.74 1007 30 48 N/A
3:50 pm 15:50 Mostly Sunny 39 4 28 -2 65 65 WNW 5 7 29.74 1007 30 48 N/A
4:20 pm 16:20 Mostly Clear 37 3 28 -2 70 70 VRB 5 7 29.77 1008 7 11 N/A
4:50 pm 16:50 Mostly Clear 37 3 28 -2 70 70 WNW 5 7 29.80 1009 7 11 N/A
5:20 pm 17:20 Mostly Clear 36 2 28 -2 75 75 W 5 7 29.80 1009 7 11 N/A
5:50 pm 17:50 Mostly Clear 36 2 28 -2 75 75 W 5 7 29.83 1010 7 11 N/A
6:20 pm 18:20 Mostly Clear 36 2 28 -2 75 75 W 6 9 29.83 1010 7 11 N/A
6:50 pm 18:50 Mostly Clear 36 2 28 -2 75 75 W 5 7 29.86 1011 7 11 N/A
7:20 pm 19:20 Mostly Clear 34 1 27 -3 75 75 W 5 7 29.86 1011 7 11 N/A
7:50 pm 19:50 Mostly Clear 34 1 28 -2 81 81 W 3 6 29.89 1012 7 11 N/A

Powered by AerisWeather